Location: Edoum�
(0.9447°N, 10.6482°E)
Time: 23:13:49
(UTC+00:00)

SJ-12 - Pass Details

Date: 07 June 2020
Orbit: 569 x 584 km, 97.7° (Epoch: 10 July)

Event Time Altitude Azimuth Distance (km) Brightness Sun altitude
Rises 04:01:18 0° 11° (N) 2,791 7.9 -16.9°
Reaches altitude 10° 04:03:27 10° 11° (N) 1,895 7.0 -16.4°
Maximum altitude 04:07:34 90° 293° (WNW) 587 3.9 -15.4°
Drops below altitude 10° 04:11:42 10° 191° (SSW) 1,902 6.2 -14.5°
Enters shadow 04:12:06 - 191° (SSW) 2,071 6.4 -14.4°
